EW0638 Weather Reports


Display with metric or nautical units.
time (UTC)temp
F
wind
direction
speed
MPH
gust
MPH
rain 1hr
in
rain 24hr
in
rain mn
in
humidity
%
barometer
mb
20260505151544 50 346 5.0 9.0 0.17 0.66 0.66 94 1010.9
20260505124548 58 333 1.0 9.0 0.00 0.47 0.47 92 1009.7
20260505123047 58 327 1.0 5.0 0.00 0.47 0.47 94 1009.6
20260505121530 58 344 0.0 4.0 0.00 0.47 0.47 94 1009.4
20260505120029 58 339 0.0 6.0 0.00 0.47 0.47 94 1009.2
20260505114508 58 321 1.0 5.0 0.00 0.47 0.47 94 1009.1
20260505113007 58 319 1.0 5.0 0.00 0.47 0.47 94 1008.7
20260505111550 58 327 0.0 0.0 0.00 0.47 0.47 94 1008.4
20260505101523 58 192 0.0 4.0 0.00 0.47 0.47 94 1007.6
20260505100015 58 150 0.0 8.0 0.00 0.47 0.47 95 1007.8
20260505094601 57 155 2.0 5.0 0.00 0.47 0.47 95 1007.5
20260505093057 57 195 0.0 3.0 0.01 0.54 0.47 95 1007.6
20260505091537 57 212 0.0 0.0 0.02 0.54 0.47 94 1007.9
20260505090036 57 355 0.0 0.0 0.12 0.54 0.47 93 1008.0
20260505084526 57 355 0.0 0.0 0.26 0.54 0.47 92 1008.1
20260505083016 57 355 0.0 0.0 0.32 0.56 0.46 92 1008.7
20260505081558 57 101 0.0 1.0 0.38 0.56 0.45 91 1008.8
20260505080056 58 315 3.0 8.0 0.36 0.47 0.36 89 1009.2
20260505074535 59 342 0.0 1.0 0.21 0.32 0.21 84 1008.4
20260505073031 61 33 0.0 5.0 0.14 0.26 0.14 80 1008.8
20260505071509 64 320 5.0 11.0 0.05 0.17 0.05 73 1009.1
20260505070008 66 344 12.0 20.0 0.00 0.12 0.00 68 1009.0
20260505064553 66 211 4.0 7.0 0.00 0.12 0.00 69 1007.1
20260505063043 66 192 5.0 11.0 0.00 0.12 0.00 68 1006.7
20260505061523 66 182 6.0 13.0 0.00 0.12 0.00 67 1006.1
20260505060019 66 213 6.0 12.0 0.00 0.12 0.00 66 1005.9
20260505054600 67 228 7.0 15.0 0.00 0.12 0.00 65 1005.6
20260505053059 67 226 8.0 15.0 0.00 0.12 0.00 65 1005.5
20260505051539 67 255 7.0 14.0 0.00 0.12 0.00 65 1005.6
20260505041504 68 190 7.0 13.0 0.00 0.12 0.00 62 1005.3
20260505040005 68 163 7.0 16.0 0.00 0.12 0.00 62 1005.4
20260505034609 68 198 9.0 15.0 0.00 0.12 0.00 61 1005.6
20260505033103 68 208 8.0 14.0 0.00 0.12 0.00 60 1005.5
20260505031557 69 217 7.0 17.0 0.00 0.12 0.00 60 1005.5
20260505030055 68 207 8.0 17.0 0.00 0.12 0.00 61 1005.4
20260505024550 69 186 7.0 14.0 0.00 0.12 0.00 61 1005.5
20260505023049 70 177 7.0 16.0 0.00 0.12 0.12 58 1005.5
20260505021534 71 212 10.0 23.0 0.00 0.12 0.12 55 1005.5
20260505020039 71 213 12.0 23.0 0.00 0.12 0.12 54 1004.7
20260505014516 72 193 18.0 35.0 0.00 0.12 0.12 51 1003.2
20260505013011 71 270 14.0 22.0 0.00 0.12 0.12 53 1004.2
20260505011554 71 161 11.0 24.0 0.00 0.12 0.12 52 1004.3
20260505010100 71 218 8.0 17.0 0.00 0.12 0.12 53 1005.0
20260505004534 71 228 7.0 16.0 0.00 0.12 0.12 52 1004.7
20260505003034 71 227 6.0 15.0 0.00 0.12 0.12 52 1004.7
20260505001517 72 238 7.0 15.0 0.00 0.12 0.12 50 1004.6
20260505000019 73 231 7.0 13.0 0.00 0.12 0.12 50 1004.4
20260504234611 73 241 8.0 19.0 0.00 0.12 0.12 49 1004.7
20260504233059 73 160 7.0 15.0 0.00 0.12 0.12 50 1004.8
20260504231539 74 215 7.0 13.0 0.00 0.12 0.12 50 1004.9
20260504230040 74 213 7.0 16.0 0.00 0.12 0.12 50 1004.7
20260504224520 74 200 9.0 15.0 0.00 0.12 0.12 50 1004.6
20260504223020 74 165 11.0 17.0 0.00 0.12 0.12 51 1004.6
20260504221559 74 192 9.0 19.0 0.00 0.12 0.12 52 1005.1
20260504220104 74 190 9.0 17.0 0.00 0.12 0.12 52 1005.2
20260504214541 74 213 8.0 20.0 0.00 0.12 0.12 53 1005.2
20260504213053 72 163 7.0 19.0 0.00 0.12 0.12 57 1005.3
20260504211519 71 187 7.0 15.0 0.00 0.12 0.12 61 1005.5
20260504210017 71 190 5.0 13.0 0.00 0.12 0.12 62 1006.1
20260504204617 71 190 6.0 14.0 0.00 0.12 0.12 64 1006.6
20260504203057 71 190 6.0 15.0 0.00 0.12 0.12 65 1006.8
20260504201557 71 159 5.0 12.0 0.00 0.12 0.12 67 1006.5
20260504200037 69 174 8.0 16.0 0.00 0.12 0.12 66 1006.9
20260504194536 69 212 7.0 16.0 0.00 0.12 0.12 68 1008.5
20260504193020 70 230 12.0 21.0 0.00 0.12 0.12 67 1008.2
20260504191520 71 217 7.0 13.0 0.00 0.12 0.12 64 1008.5
20260504190109 72 261 5.0 17.0 0.00 0.12 0.12 62 1007.8
20260504184559 73 173 10.0 20.0 0.00 0.12 0.12 61 1007.3
20260504183054 73 199 7.0 16.0 0.00 0.12 0.12 62 1007.7
20260504181538 72 208 6.0 16.0 0.00 0.12 0.12 64 1007.4
20260504180018 72 218 7.0 13.0 0.00 0.12 0.12 63 1007.6
20260504174519 72 185 3.0 9.0 0.00 0.12 0.12 64 1007.8
20260504173057 71 236 4.0 11.0 0.00 0.12 0.12 66 1007.9
20260504171555 71 196 8.0 15.0 0.00 0.12 0.12 66 1008.1